Wind_Speed
17 18 17 19 20 25 28 35 31 39 36 34 33 31 34 29 31 33 39 45 43 40 39 31 27 29 25 23 23 19 24 19 20 14 6 5 8 10 9 9 8 7 5
12 14 14 17 17 25 32 32 36 32 37 35 34 29 26 29 31 32 39 41 40 40 40 38 32 29 27 24 25 29 20 13 23 9 7 4 6 9 11 10 9 8 5
10 11 15 18 20 19 24 28 32 33 33 32 24 24 22 23 25 35 37 40 41 44 45 40 36 33 34 30 33 34 31 18 22 18 6 3 5 8 9 10 10 8 6
10 10 14 18 22 24 23 18 24 26 29 30 31 32 31 29 36 30 32 33 36 42 42 41 39 37 35 33 39 39 38 29 20 19 18 7 5 4 4 9 12 9 7
11 14 14 16 19 27 28 26 16 19 28 30 36 33 34 37 32 30 32 34 36 40 40 40 38 39 39 39 40 42 42 38 25 22 11 9 6 4 2 3 8 10 9
15 15 19 20 19 24 29 28 25 18 17 29 33 38 38 37 32 34 32 33 34 36 42 43 42 40 39 41 42 43 46 42 37 31 19 16 9 10 6 3 5 7 5
13 14 18 21 22 23 24 26 25 26 20 18 29 35 41 39 39 38 34 32 31 35 41 42 41 42 42 39 42 42 41 42 40 32 29 21 15 10 10 7 5 3 4
16 17 16 19 23 24 25 25 25 25 30 24 24 31 37 37 38 39 39 36 36 36 34 39 41 40 38 37 40 40 39 39 38 28 27 21 16 14 14 8 9 2 3
19 18 19 20 20 26 27 26 28 26 27 30 29 31 34 37 40 41 39 39 36 34 35 37 41 38 40 42 42 42 39 38 32 29 25 22 19 17 15 13 12 8 4
21 19 17 21 19 21 24 26 27 26 28 30 30 30 35 38 41 40 40 38 36 33 33 37 40 39 38 42 40 37 34 35 29 26 27 22 18 16 17 16 13 8 5
20 18 18 24 23 22 22 22 25 26 27 29 29 29 33 35 36 38 38 37 33 34 36 37 37 37 38 36 34 33 32 31 31 28 27 22 19 17 16 13 11 12 6
19 18 19 21 21 22 24 24 23 26 29 30 31 29 31 26 27 30 33 33 31 35 37 38 31 32 32 36 35 34 36 37 36 34 31 28 25 19 13 11 8 10 5
19 18 16 15 20 22 23 25 25 27 28 32 33 31 26 19 23 29 29 29 32 34 36 38 35 34 35 35 35 37 40 40 41 38 34 30 29 26 21 16 12 7 4
18 17 15 15 18 19 21 24 26 27 28 31 33 33 28 24 25 26 28 34 33 36 39 36 33 33 34 35 37 39 43 42 40 36 34 36 29 27 24 19 15 11 8
18 17 17 16 19 21 22 25 26 27 29 30 30 33 33 28 23 25 29 35 36 38 36 33 32 32 35 38 41 43 48 47 42 39 36 35 28 23 22 19 16 12 8
19 20 20 16 15 20 24 24 25 26 27 28 29 30 30 25 18 21 27 28 28 29 31 30 33 34 33 39 46 49 45 43 42 39 31 28 27 24 20 16 14 11 9
22 21 20 13 17 25 25 27 26 26 25 25 28 27 26 25 18 17 19 22 24 27 27 28 32 32 32 46 51 52 44 43 40 41 37 31 26 24 20 16 13 10 7
20 18 11 19 26 30 28 27 26 25 24 26 26 25 22 23 21 17 19 20 23 27 28 30 31 32 38 53 55 52 45 41 44 41 35 34 32 24 23 17 12 9 7
17 16 25 27 26 27 30 27 26 27 23 25 27 26 24 20 22 20 20 24 23 22 25 29 31 34 41 54 56 51 43 39 38 37 36 35 28 24 19 17 14 10 7
26 27 30 28 27 27 28 25 26 25 26 27 28 29 26 24 21 26 28 25 23 22 27 29 32 36 43 56 57 47 37 36 33 32 31 28 27 21 19 16 16 12 8
29 29 30 27 28 27 26 24 27 26 28 28 29 30 30 26 27 27 27 25 31 25 24 26 28 33 43 49 50 42 41 39 38 31 31 26 20 20 18 15 13 9 6
28 30 26 27 30 26 22 25 27 28 28 27 30 32 30 28 24 27 24 25 30 30 29 20 21 28 34 44 47 38 37 39 39 32 30 25 22 20 18 14 12 9 6
27 27 25 26 31 27 22 25 30 27 29 28 30 30 27 27 22 26 25 25 25 25 28 28 23 22 30 35 43 40 38 37 34 36 31 26 24 22 18 16 13 9 6
23 28 26 25 27 28 26 24 29 26 24 26 27 26 22 21 21 23 26 28 28 23 23 25 28 27 31 34 39 40 41 38 38 31 28 28 25 20 19 16 13 11 8
27 25 24 23 28 28 27 25 25 21 22 22 24 22 19 19 20 20 24 27 31 40 38 33 36 36 31 34 43 40 39 37 34 33 28 25 22 19 16 14 12 12 10
27 24 24 25 27 25 22 23 19 17 19 20 18 17 13 13 12 16 13 13 19 25 28 31 36 30 34 45 42 42 40 37 36 29 25 21 20 19 18 17 13 11 9
Wind_Direction
275 283 283 279 260 239 231 228 224 225 218 215 215 220 222 227 232 231 232 236 233 230 229 226 228 225 221 219 216 208 207 200 191 162 158 169 188 182 176 171 164 159 162
294 308 328 322 289 257 240 230 227 223 221 218 220 222 229 233 232 231 234 234 232 231 230 228 224 223 222 221 215 214 191 197 192 176 158 184 200 205 194 184 177 177 165
317 337 350 344 342 314 268 241 234 228 223 222 223 224 230 232 234 230 233 231 229 231 231 227 223 222 220 219 222 214 203 191 199 197 179 162 216 169 196 200 189 182 171
9 1 2 359 354 350 358 288 252 238 229 219 218 219 222 227 231 233 232 230 229 229 228 225 224 220 221 220 224 221 213 203 189 203 215 207 148 179 169 204 202 190 180
15 6 4 4 356 354 356 352 320 253 234 221 221 223 227 234 236 233 233 226 225 226 225 224 220 220 219 219 221 218 216 212 206 202 182 207 206 205 163 168 188 212 214
13 9 4 359 354 353 353 348 338 322 256 231 227 225 230 232 232 231 230 228 224 222 221 221 219 220 218 218 220 225 221 218 214 215 215 187 184 198 180 156 164 187 182
10 1 358 354 352 343 336 337 333 324 315 255 238 233 234 235 235 237 234 229 225 222 220 214 213 216 218 216 221 223 222 220 216 212 219 217 200 188 178 155 145 153 173
1 350 351 346 344 340 335 326 323 313 315 297 268 252 245 241 240 240 237 235 231 227 222 212 213 214 210 211 220 223 220 222 216 214 214 204 195 187 182 156 149 147 161
352 340 336 337 336 338 334 327 320 314 309 303 293 277 262 249 243 241 239 237 235 233 221 209 213 209 210 216 217 216 213 218 212 202 201 197 180 171 167 160 162 150 156
341 334 331 329 327 332 331 331 326 319 312 307 298 285 273 261 250 243 238 234 231 227 214 202 215 209 208 215 210 209 208 205 197 199 183 172 161 151 149 146 143 136 133
328 323 321 326 326 330 333 334 332 330 326 320 305 295 283 265 250 242 240 235 227 216 208 206 212 207 204 202 201 198 191 177 174 173 164 149 148 143 137 135 135 128 140
315 312 311 311 318 325 328 330 333 333 329 324 318 306 297 272 247 242 240 237 218 213 205 211 205 200 195 199 190 175 172 173 168 166 158 149 146 142 141 137 131 113 129
309 306 302 304 315 320 325 328 331 331 331 328 324 317 308 265 246 242 238 233 211 209 209 208 201 192 192 186 180 174 171 174 171 166 160 155 162 157 163 163 149 158 186
302 301 298 302 309 315 322 327 329 330 332 333 326 319 317 291 253 242 228 218 213 211 206 203 195 188 180 176 171 172 169 168 168 168 168 169 171 170 166 168 160 177 176
306 298 297 304 309 318 324 326 327 327 330 333 333 323 317 307 281 231 218 213 211 205 201 189 187 176 177 174 169 170 167 165 166 169 171 171 172 172 173 168 173 183 151
298 294 288 297 307 316 317 319 321 322 325 328 332 332 318 304 290 248 207 203 193 189 188 180 175 172 173 173 174 169 164 163 160 159 160 165 165 169 168 169 184 176 153
299 294 292 285 304 317 309 309 315 315 317 321 329 332 325 304 283 251 217 192 183 181 174 175 176 170 172 175 177 169 164 161 159 160 161 161 171 164 161 175 159 148 166
297 296 291 298 304 309 297 303 308 308 310 313 319 323 323 306 268 235 211 194 189 184 177 177 177 172 176 177 176 168 164 160 163 168 169 172 168 170 170 159 152 161 182
296 292 300 299 296 296 291 297 303 304 305 306 311 313 311 299 260 217 202 190 185 185 184 179 175 173 174 176 173 167 160 158 161 169 173 173 170 168 168 155 156 158 170
289 298 301 296 292 290 290 292 297 300 299 306 304 305 301 295 256 221 203 191 200 198 187 179 181 177 172 175 176 164 157 148 150 160 168 169 164 166 159 154 157 156 167
294 295 298 292 290 290 288 284 293 293 296 299 299 299 295 284 270 241 221 199 189 183 189 177 175 176 174 170 168 160 155 153 149 152 158 161 165 160 159 155 152 149 149
297 295 292 290 292 292 287 284 289 293 298 298 298 294 293 291 264 221 202 192 180 176 154 174 162 165 166 166 167 156 152 155 151 151 158 159 162 158 155 153 149 142 138
293 293 290 290 289 292 285 285 285 296 300 297 295 293 298 291 254 210 189 179 179 168 166 154 156 157 151 152 158 164 165 157 149 157 161 160 155 155 156 154 146 145 143
287 289 285 285 286 292 291 284 288 298 296 292 289 291 294 284 236 203 190 178 174 168 164 162 153 152 155 151 155 159 162 163 156 159 156 150 151 154 149 147 146 147 138
286 284 280 279 280 290 293 294 299 300 293 292 288 290 283 261 214 196 189 185 186 176 171 174 159 161 159 159 152 149 150 154 153 149 144 145 147 151 151 145 144 142 131
284 282 279 279 283 292 295 303 304 302 297 294 291 283 259 221 195 173 156 190 186 179 171 164 156 155 150 147 157 160 157 156 158 146 151 154 158 159 154 150 149 145 141
Height
756 754 754 755 757 756 756 755 758 757 764 768 771 774 773 780 782 783 783 785 788 792 796 800 804 807 809 812 813 816 820 823 824 827 832 833 834 835 837 837 839 839 839
756 754 755 754 752 751 748 748 748 752 754 758 762 767 771 771 773 775 775 777 781 784 787 790 794 798 803 805 806 807 813 819 820 823 826 829 835 834 833 834 835 836 838
758 756 755 753 750 747 747 745 744 747 748 754 760 763 766 765 766 763 765 766 772 774 777 779 784 789 793 795 798 800 803 810 815 817 819 825 819 827 831 832 832 833 834
759 760 757 753 750 748 744 743 742 744 744 746 750 752 752 754 749 757 758 760 763 766 769 772 774 777 784 787 788 793 797 801 805 813 812 814 815 817 824 828 828 829 830
760 759 758 754 751 746 744 741 739 739 739 739 740 742 744 741 743 747 748 748 750 754 759 763 766 768 771 776 778 783 789 793 799 804 807 811 813 814 815 818 825 828 828
760 760 760 757 753 748 744 740 737 734 734 735 734 734 732 732 735 734 735 737 740 742 745 748 754 758 763 765 768 775 778 784 788 796 801 799 805 808 811 814 820 822 826
762 761 757 754 753 749 744 741 737 732 730 729 728 727 724 724 724 726 727 728 730 729 730 737 743 747 752 756 761 767 773 778 782 785 795 797 797 799 804 807 813 816 821
760 758 756 755 751 748 744 740 737 733 727 724 722 719 718 716 714 716 716 716 717 718 724 728 733 736 741 747 754 760 764 772 774 782 788 791 793 795 798 802 808 816 816
761 757 755 751 750 746 741 738 735 731 726 720 716 711 709 707 703 703 705 706 708 712 714 717 723 727 730 736 741 747 751 762 768 772 781 786 788 791 795 798 802 804 808
758 755 752 750 747 745 740 735 732 728 722 716 711 706 701 696 694 695 693 696 699 703 706 708 714 718 722 729 734 742 748 755 764 775 777 784 789 790 793 797 799 804 806
757 754 749 744 743 740 737 733 729 725 720 713 705 699 692 688 686 685 686 688 690 691 696 702 706 709 715 721 730 737 745 754 761 769 774 782 790 795 797 799 802 799 806
756 752 748 744 740 737 734 729 724 719 714 708 700 691 683 678 677 677 679 681 682 682 688 696 700 704 709 714 722 728 738 748 756 763 768 777 781 789 798 799 805 799 805
754 749 744 740 737 734 729 726 721 715 708 701 693 684 678 672 670 668 670 673 676 678 684 687 690 694 702 708 717 723 731 743 750 758 764 771 776 780 787 796 798 800 803
750 745 741 737 733 730 727 722 717 711 704 696 690 681 673 668 663 662 662 665 669 672 675 680 686 690 697 703 711 722 725 738 748 754 759 765 774 778 784 790 790 796 800
747 742 737 733 730 726 722 718 713 708 702 694 687 682 672 665 660 656 656 658 661 665 669 673 681 685 692 699 706 716 720 728 741 750 756 762 769 777 780 782 788 794 792
740 736 731 729 726 723 718 714 709 703 699 693 686 679 673 666 662 658 652 655 656 660 666 671 675 680 687 695 701 707 717 725 734 745 758 764 768 773 777 780 785 788 791
734 730 727 724 722 717 713 708 703 698 695 690 683 677 671 667 662 661 658 654 657 659 662 670 674 677 684 691 698 700 715 723 732 741 749 757 767 770 772 779 782 785 790
728 725 723 721 717 713 708 703 699 695 690 685 679 674 668 664 661 659 657 657 658 659 662 667 672 675 680 685 692 696 711 720 729 737 746 754 762 766 771 775 779 784 789
725 722 720 717 712 708 702 697 693 689 685 679 674 669 665 660 657 654 655 652 656 660 662 664 670 673 678 683 688 694 708 719 730 736 743 751 758 765 768 770 778 784 788
721 717 713 709 705 699 695 691 685 681 677 671 667 663 659 655 650 648 647 642 648 655 659 661 665 670 676 681 684 693 707 717 727 736 744 752 756 763 767 772 777 781 786
714 710 706 701 695 691 688 684 678 673 669 665 659 655 650 647 641 639 638 634 641 645 658 659 663 668 672 679 685 693 698 708 718 735 743 750 758 763 768 771 776 781 784
704 703 699 691 686 685 682 675 669 664 660 657 652 646 640 636 631 629 629 633 636 644 638 658 662 667 673 678 683 694 699 710 719 731 741 750 756 763 767 772 775 779 783
696 693 690 684 677 674 673 668 660 658 653 649 643 637 632 628 623 622 624 629 634 634 642 645 655 671 663 677 686 695 704 715 723 730 740 748 754 762 766 770 772 779 782
687 684 680 676 669 665 663 660 654 651 646 640 635 630 626 621 617 615 617 620 626 633 640 645 649 662 673 678 684 694 705 714 723 734 741 746 754 762 766 771 772 775 778
677 676 671 667 660 658 654 652 648 644 639 634 629 625 621 617 615 613 614 615 619 619 626 636 639 654 662 672 676 692 703 714 724 734 743 749 754 761 766 770 774 774 775
669 665 662 660 654 652 647 645 642 639 634 629 625 622 617 615 614 612 615 618 620 622 626 634 640 655 661 670 687 695 703 713 725 733 742 748 753 759 763 766 772 772 775